Radiation Dose at Monitoring Post of Fukushima Daini Nuclear Power Station
Date,Time,MP-1(microSv/h),MP-2(microSv/h),MP-3(microSv/h),MP-4(microSv/h),MP-5(microSv/h),MP-6(microSv/h),MP-7(microSv/h),Wind Direction,Wind Velocity(m/s),Rain
2023/08/09,00:00,0.148,0.136,0.221,0.209,0.212,0.122,0.077,south,5.6,No
2023/08/09,00:10,0.150,0.138,0.221,0.209,0.210,0.122,0.077,south,6.3,No
2023/08/09,00:20,0.150,0.137,0.224,0.211,0.209,0.121,0.076,south,7.1,Yes
2023/08/09,00:30,0.149,0.136,0.223,0.212,0.209,0.121,0.076,south,7.6,Yes
2023/08/09,00:40,0.149,0.135,0.220,0.211,0.213,0.123,0.077,south,6.8,No
2023/08/09,00:50,0.149,0.137,0.221,0.209,0.210,0.122,0.077,south,6.3,No
2023/08/09,01:00,0.150,0.137,0.222,0.209,0.210,0.122,0.077,south,6.2,No
2023/08/09,01:10,0.150,0.137,0.223,0.212,0.208,0.122,0.077,south,6.8,No
2023/08/09,01:20,0.148,0.136,0.222,0.211,0.212,0.122,0.077,south-southeast,5.3,Yes
2023/08/09,01:30,0.148,0.136,0.221,0.209,0.211,0.122,0.077,south,5.6,Yes
2023/08/09,01:40,0.148,0.137,0.221,0.208,0.210,0.121,0.076,south,6.4,Yes
2023/08/09,01:50,-,-,-,-,-,-,-,-,-,-
2023/08/09,02:00,0.148,0.135,0.218,0.208,0.207,0.120,0.076,south,5.8,Yes
2023/08/09,02:10,0.146,0.134,0.214,0.204,0.208,0.119,0.075,south,6.0,Yes
2023/08/09,02:20,0.146,0.134,0.214,0.203,0.206,0.119,0.075,south,5.9,Yes
2023/08/09,02:30,0.148,0.135,0.219,0.204,0.205,0.120,0.076,south,5.1,Yes
2023/08/09,02:40,0.148,0.134,0.218,0.206,0.205,0.119,0.076,south-southeast,4.6,Yes
2023/08/09,02:50,0.146,0.133,0.213,0.204,0.207,0.118,0.075,south-southeast,4.4,Yes
2023/08/09,03:00,0.145,0.133,0.213,0.201,0.207,0.118,0.076,south,4.6,Yes
2023/08/09,03:10,0.148,0.135,0.216,0.202,0.206,0.119,0.075,south-southeast,4.4,Yes
2023/08/09,03:20,0.147,0.133,0.216,0.205,0.205,0.119,0.076,south-southeast,6.2,No
2023/08/09,03:30,0.147,0.133,0.214,0.206,0.206,0.119,0.074,south-southeast,6.3,Yes
2023/08/09,03:40,0.146,0.133,0.215,0.204,0.209,0.117,0.075,south,6.3,Yes
2023/08/09,03:50,0.146,0.135,0.218,0.202,0.209,0.119,0.076,south-southeast,5.7,Yes
2023/08/09,04:00,0.148,0.134,0.216,0.205,0.207,0.119,0.076,south-southeast,6.2,Yes
2023/08/09,04:10,0.147,0.134,0.213,0.205,0.205,0.118,0.075,south-southeast,5.8,Yes
2023/08/09,04:20,0.146,0.133,0.214,0.203,0.209,0.118,0.074,south-southeast,6.3,Yes
2023/08/09,04:30,0.145,0.134,0.216,0.203,0.207,0.118,0.075,south-southeast,6.6,Yes
2023/08/09,04:40,0.147,0.134,0.217,0.204,0.207,0.119,0.075,south,6.1,Yes
2023/08/09,04:50,0.146,0.134,0.214,0.205,0.206,0.118,0.075,south-southeast,5.6,Yes
2023/08/09,05:00,0.144,0.132,0.210,0.199,0.204,0.116,0.074,south,4.8,Yes
2023/08/09,05:10,0.143,0.133,0.212,0.197,0.205,0.116,0.075,south,5.2,Yes
2023/08/09,05:20,0.145,0.132,0.212,0.200,0.204,0.116,0.074,south-southeast,5.2,Yes
2023/08/09,05:30,0.145,0.131,0.212,0.203,0.204,0.116,0.074,south,6.3,Yes
2023/08/09,05:40,0.145,0.131,0.212,0.203,0.205,0.116,0.074,south,6.1,Yes
2023/08/09,05:50,0.144,0.133,0.214,0.200,0.207,0.116,0.075,south,5.5,Yes
2023/08/09,06:00,0.143,0.133,0.214,0.201,0.206,0.116,0.074,south,5.3,No
2023/08/09,06:10,0.146,0.134,0.214,0.204,0.205,0.117,0.075,south-southeast,5.9,No
2023/08/09,06:20,0.145,0.132,0.213,0.205,0.205,0.116,0.074,south-southeast,5.5,Yes
2023/08/09,06:30,0.145,0.132,0.212,0.203,0.205,0.117,0.073,south-southeast,6.9,No
2023/08/09,06:40,0.144,0.132,0.212,0.202,0.205,0.117,0.074,south,6.2,Yes
2023/08/09,06:50,0.144,0.132,0.212,0.201,0.204,0.118,0.074,south,5.8,Yes
2023/08/09,07:00,0.143,0.132,0.216,0.201,0.210,0.118,0.075,south,4.9,No
2023/08/09,07:10,0.145,0.133,0.217,0.202,0.208,0.117,0.075,south,5.1,No
2023/08/09,07:20,0.146,0.134,0.215,0.201,0.207,0.117,0.075,south,5.6,Yes
2023/08/09,07:30,0.146,0.134,0.215,0.200,0.206,0.116,0.075,south,4.4,Yes
2023/08/09,07:40,0.145,0.133,0.214,0.204,0.206,0.117,0.075,south,4.8,Yes
2023/08/09,07:50,0.145,0.133,0.215,0.206,0.205,0.117,0.074,south,4.9,Yes
2023/08/09,08:00,0.145,0.132,0.213,0.204,0.203,0.117,0.074,south,4.3,Yes
2023/08/09,08:10,0.143,0.132,0.213,0.202,0.207,0.118,0.075,south,5.5,No
2023/08/09,08:20,0.143,0.133,0.212,0.202,0.209,0.117,0.073,south,5.1,Yes
2023/08/09,08:30,0.145,0.132,0.214,0.201,0.208,0.116,0.074,south,4.8,Yes
2023/08/09,08:40,0.145,0.131,0.213,0.201,0.207,0.117,0.074,south,4.3,No
2023/08/09,08:50,0.145,0.133,0.213,0.201,0.206,0.117,0.074,south,5.3,Yes
2023/08/09,09:00,0.145,0.133,0.213,0.202,0.206,0.118,0.075,south,4.9,Yes
2023/08/09,09:10,0.145,0.132,0.215,0.202,0.207,0.118,0.075,south,4.8,Yes
2023/08/09,09:20,0.145,0.133,0.215,0.201,0.206,0.117,0.074,south,6.1,Yes
2023/08/09,09:30,0.145,0.132,0.213,0.201,0.205,0.117,0.074,south,6.0,Yes
2023/08/09,09:40,0.144,0.132,0.213,0.201,0.205,0.117,0.074,south,5.9,Yes
2023/08/09,09:50,0.143,0.132,0.213,0.200,0.206,0.116,0.074,south,7.1,No
2023/08/09,10:00,0.145,0.132,0.215,0.201,0.206,0.118,0.074,south-southeast,7.6,No
2023/08/09,10:10,0.144,0.133,0.215,0.203,0.207,0.117,0.075,south-southeast,7.9,-
2023/08/09,10:20,0.145,0.134,0.216,0.204,0.207,0.118,0.075,south-southeast,9.3,-
2023/08/09,10:30,0.145,0.134,0.216,0.203,0.208,0.118,0.075,south-southeast,8.3,-
2023/08/09,10:40,0.146,0.134,0.216,0.204,0.208,0.118,0.075,south-southeast,8.1,-
2023/08/09,10:50,0.145,0.134,0.217,0.205,0.208,0.118,0.076,south-southeast,8.6,-
2023/08/09,11:00,0.146,0.134,0.216,0.204,0.208,0.118,0.076,south-southeast,7.8,-
2023/08/09,11:10,0.146,0.134,0.216,0.205,0.208,0.118,0.075,south-southeast,8.3,-
2023/08/09,11:20,0.147,0.135,0.217,0.206,0.208,0.118,0.075,south-southeast,8.1,-
2023/08/09,11:30,0.146,0.134,0.216,0.206,0.209,0.118,0.075,south-southeast,7.6,-
2023/08/09,11:40,0.147,0.135,0.216,0.204,0.209,0.118,0.075,south-southeast,7.2,No
2023/08/09,11:50,0.147,0.135,0.218,0.206,0.208,0.118,0.074,south-southeast,7.7,No
2023/08/09,12:00,0.147,0.135,0.217,0.206,0.208,0.118,0.076,south-southeast,7.8,No
2023/08/09,12:10,0.147,0.134,0.218,0.206,0.209,0.118,0.076,south-southeast,9.5,Yes
2023/08/09,12:20,0.148,0.135,0.217,0.207,0.210,0.118,0.075,south-southeast,9.3,Yes
2023/08/09,12:30,0.148,0.135,0.217,0.206,0.208,0.119,0.076,south,9.2,No
2023/08/09,12:40,0.147,0.135,0.217,0.206,0.210,0.119,0.075,south-southeast,10.3,No
2023/08/09,12:50,0.147,0.135,0.217,0.206,0.210,0.119,0.075,south-southeast,8.7,No
2023/08/09,13:00,0.146,0.135,0.217,0.206,0.210,0.119,0.075,south-southeast,8.6,No
2023/08/09,13:10,0.147,0.134,0.218,0.207,0.210,0.119,0.075,south-southeast,9.2,No
2023/08/09,13:20,0.148,0.135,0.218,0.206,0.209,0.119,0.076,south-southeast,8.8,No
2023/08/09,13:30,0.148,0.136,0.218,0.206,0.209,0.119,0.075,south-southeast,9.3,No
2023/08/09,13:40,0.147,0.136,0.218,0.207,0.209,0.118,0.075,south-southeast,8.8,No
2023/08/09,13:50,0.147,0.135,0.217,0.206,0.210,0.119,0.075,south-southeast,7.8,No
2023/08/09,14:00,0.147,0.134,0.218,0.206,0.210,0.118,0.076,south,10.1,No
2023/08/09,14:10,0.148,0.135,0.218,0.206,0.210,0.119,0.075,south-southeast,9.5,No
2023/08/09,14:20,0.148,0.135,0.216,0.205,0.209,0.119,0.076,south-southeast,8.5,No
2023/08/09,14:30,0.149,0.136,0.218,0.206,0.209,0.118,0.075,south-southeast,8.4,No
2023/08/09,14:40,0.148,0.135,0.218,0.206,0.209,0.118,0.075,south-southeast,8.1,No
2023/08/09,14:50,0.148,0.135,0.218,0.206,0.210,0.119,0.077,south-southeast,9.3,No
2023/08/09,15:00,0.147,0.135,0.218,0.207,0.209,0.119,0.076,south-southeast,9.3,No
2023/08/09,15:10,0.146,0.135,0.217,0.206,0.210,0.119,0.075,south-southeast,8.3,No
2023/08/09,15:20,0.147,0.136,0.217,0.206,0.209,0.119,0.075,south-southeast,8.5,No
2023/08/09,15:30,0.147,0.134,0.217,0.205,0.208,0.119,0.075,south-southeast,9.2,No
2023/08/09,15:40,0.146,0.135,0.218,0.206,0.208,0.120,0.075,south,10.6,No
2023/08/09,15:50,0.146,0.134,0.217,0.205,0.209,0.119,0.075,south-southeast,10.7,No
2023/08/09,16:00,0.146,0.135,0.216,0.205,0.208,0.118,0.075,south,10.7,Yes
2023/08/09,16:10,0.147,0.134,0.217,0.205,0.208,0.119,0.076,south-southeast,11.1,No
2023/08/09,16:20,0.147,0.135,0.217,0.205,0.208,0.118,0.075,south,10.3,No
2023/08/09,16:30,0.146,0.134,0.217,0.204,0.208,0.119,0.075,south-southeast,9.8,No
2023/08/09,16:40,0.146,0.134,0.216,0.204,0.208,0.120,0.075,south,11.2,No
2023/08/09,16:50,0.147,0.134,0.215,0.204,0.208,0.120,0.074,south-southeast,10.6,No
2023/08/09,17:00,0.146,0.134,0.216,0.205,0.210,0.119,0.076,south-southeast,10.1,Yes
2023/08/09,17:10,0.147,0.135,0.217,0.208,0.209,0.119,0.076,south-southeast,9.5,No
2023/08/09,17:20,0.146,0.134,0.219,0.209,0.208,0.120,0.076,south-southeast,9.2,No
2023/08/09,17:30,0.146,0.134,0.221,0.208,0.208,0.120,0.076,south-southeast,10.3,No
2023/08/09,17:40,0.146,0.134,0.219,0.206,0.209,0.119,0.075,south-southeast,10.1,No
2023/08/09,17:50,0.147,0.134,0.219,0.205,0.209,0.119,0.075,south-southeast,11.7,Yes
2023/08/09,18:00,0.148,0.136,0.218,0.206,0.213,0.118,0.075,south,11.4,Yes
2023/08/09,18:10,0.149,0.136,0.216,0.205,0.212,0.119,0.076,south,9.2,Yes
2023/08/09,18:20,0.147,0.135,0.218,0.209,0.210,0.119,0.075,south,9.5,No
2023/08/09,18:30,0.146,0.136,0.220,0.208,0.209,0.120,0.075,south-southeast,9.6,No
2023/08/09,18:40,0.148,0.134,0.219,0.206,0.208,0.120,0.075,south-southeast,8.5,No
2023/08/09,18:50,0.148,0.136,0.217,0.205,0.211,0.119,0.074,south-southeast,8.8,Yes
2023/08/09,19:00,0.147,0.136,0.216,0.203,0.211,0.119,0.075,south,7.9,Yes
2023/08/09,19:10,0.145,0.134,0.216,0.205,0.208,0.118,0.075,south,5.6,Yes
2023/08/09,19:20,0.145,0.134,0.217,0.205,0.207,0.119,0.075,south,6.8,Yes
2023/08/09,19:30,0.147,0.134,0.216,0.204,0.207,0.119,0.074,south,7.1,No
2023/08/09,19:40,0.146,0.134,0.214,0.203,0.210,0.119,0.075,south-southeast,7.2,No
2023/08/09,19:50,0.146,0.134,0.216,0.206,0.209,0.118,0.075,south,7.4,No
2023/08/09,20:00,0.146,0.133,0.218,0.206,0.207,0.118,0.075,south-southeast,7.3,No
2023/08/09,20:10,0.146,0.132,0.215,0.205,0.207,0.119,0.074,south-southeast,8.6,No
2023/08/09,20:20,0.147,0.135,0.216,0.202,0.208,0.120,0.075,south,8.2,Yes
2023/08/09,20:30,0.147,0.135,0.214,0.204,0.209,0.119,0.075,south-southeast,8.3,No
2023/08/09,20:40,0.147,0.135,0.218,0.206,0.208,0.119,0.075,south-southeast,9.2,No
2023/08/09,20:50,0.146,0.133,0.217,0.205,0.207,0.118,0.075,south-southeast,8.8,No
2023/08/09,21:00,0.145,0.133,0.215,0.204,0.205,0.119,0.075,south-southeast,9.3,Yes
2023/08/09,21:10,0.148,0.134,0.214,0.204,0.209,0.119,0.074,south-southeast,8.8,Yes
2023/08/09,21:20,0.147,0.134,0.215,0.205,0.210,0.119,0.075,south-southeast,8.6,No
2023/08/09,21:30,0.146,0.135,0.217,0.207,0.208,0.119,0.075,south-southeast,9.2,No
2023/08/09,21:40,0.145,0.133,0.216,0.205,0.206,0.119,0.075,south-southeast,8.5,No
2023/08/09,21:50,0.144,0.134,0.215,0.204,0.206,0.119,0.075,south,9.3,No
2023/08/09,22:00,0.147,0.133,0.214,0.202,0.208,0.119,0.074,south,8.7,No
2023/08/09,22:10,0.148,0.134,0.217,0.204,0.209,0.119,0.075,south,8.1,No
2023/08/09,22:20,0.146,0.135,0.217,0.206,0.209,0.119,0.075,south-southeast,8.6,No
2023/08/09,22:30,0.146,0.134,0.215,0.204,0.207,0.118,0.075,south,8.9,No
2023/08/09,22:40,0.145,0.134,0.214,0.203,0.206,0.118,0.075,south,8.6,No
2023/08/09,22:50,0.148,0.134,0.215,0.204,0.210,0.119,0.075,south,7.5,No
2023/08/09,23:00,0.147,0.135,0.217,0.207,0.210,0.120,0.076,south,7.6,No
2023/08/09,23:10,0.146,0.134,0.216,0.205,0.208,0.119,0.075,south,8.5,No
2023/08/09,23:20,0.144,0.134,0.214,0.204,0.206,0.118,0.074,south,8.3,No
2023/08/09,23:30,0.146,0.134,0.215,0.203,0.208,0.118,0.074,south-southeast,7.5,No
2023/08/09,23:40,0.148,0.135,0.217,0.206,0.212,0.118,0.076,south,8.3,No
2023/08/09,23:50,0.145,0.134,0.216,0.206,0.209,0.120,0.075,south,7.9,No
